星链-1298 (STARLINK-1298 )

导读 | 豆包AI

STARLINK-1298是美国太空探索技术公司(SpaceX)星链(Starlink)互联网星座计划中的一颗卫星,于2020年3月18日发射升空,属于星链项目的早期组网卫星,旨在为全球提供低延迟、高速率的卫星互联网接入服务,推动全球互联网覆盖能力提升。

Basic Information
目录编号:
45413
目录名称:
STARLINK-1298
国际标识:
2020-019BF
轨道中心:
EARTH
卫星名称:
星链-1298
卫星全名:
星链-1298 (STARLINK-1298 )
卫星状态:
已陨落 最后检测时间 2026-03-29
发射日期:
2020-03-18 UTC
国别 :
美国 (US)
星等 :
--
Orbit Information
数据来源 国际轨道数据
星历时间: 2026-03-29T09:29:17+0800
轨道信息已过期30天
半长轴: 6558.704km
偏心率: 0.000623
轨道倾角: 53.020°
近地点辐角 265.500°
升交点赤经 312.496°
平近点角 94.534°
近地点: 176.48km
远地点: 184.654km
周期: 88.102分钟
每日圈数: 16.344655
Detailed Information
固有亮度:
5
最大亮度:
2.5
卫星平台:
Starlink V1.0
覆盖范围:
全球
运营商:
太空探索技术公司
运营商所在国:
美国
制造商(研发单位):
太空探索技术公司
制造商所在国:
美国
使用方式:
暂无
Satellite Introduction
星链(Starlink)计划是由太空探索技术公司(SpaceX)提出的一个巨型低轨卫星互联网星座项目,计划在2019年至2024年间在太空搭建由约1.2万颗卫星组成的“星链”网络,其中1584颗将部署在地球上空550千米处的近地轨道,并从2020年开始工作。该卫星仍在工作。